DW5868 Weather Reports


time (UTC)temp
C
wind
direction
speed
KPH
gust
KPH
rain 1hr
cm
rain 24hr
cm
rain mn
cm
humidity
%
barometer
mb
20260905233022 15 224 9.7 27.4 0.00 0.00 0.00 50 1008.1
20260905231536 15 273 11.3 29.0 0.00 0.00 0.00 49 1008.3
20260905230022 15 84 11.3 33.8 0.00 0.00 0.00 49 1008.3
20260905224526 15 38 9.7 38.6 0.00 0.00 0.00 48 1008.3
20260905223033 15 215 11.3 37.0 0.00 0.00 0.00 47 1008.4
20260905221520 15 172 6.4 43.5 0.00 0.00 0.00 46 1008.4
20260905220025 16 255 9.7 25.7 0.00 0.00 0.00 45 1008.5
20260905214519 16 260 9.7 25.7 0.00 0.00 0.00 44 1008.7
20260905213021 15 253 11.3 32.2 0.00 0.00 0.00 46 1008.9
20260905211535 16 281 11.3 40.2 0.00 0.00 0.00 41 1008.8
20260905210020 16 272 9.7 30.6 0.00 0.00 0.00 40 1008.8
20260905204524 16 300 11.3 33.8 0.00 0.00 0.00 40 1008.8
20260905203033 16 277 9.7 25.7 0.00 0.00 0.00 40 1008.7
20260905201525 16 273 8.0 22.5 0.00 0.00 0.00 41 1009.0
20260905200015 16 302 9.7 29.0 0.00 0.00 0.00 42 1008.9
20260905194514 16 223 8.0 27.4 0.00 0.00 0.00 40 1009.0
20260905193021 17 240 11.3 35.4 0.00 0.00 0.00 36 1009.2
20260905191523 17 257 4.8 20.9 0.00 0.00 0.00 33 1009.1
20260905190012 17 165 3.2 14.5 0.00 0.00 0.00 34 1009.4
20260905184512 17 278 1.6 25.7 0.00 0.00 0.00 34 1009.6
20260905183011 16 253 11.3 22.5 0.00 0.00 0.00 32 1009.6
20260905181511 17 328 9.7 19.3 0.00 0.00 0.00 29 1009.6
20260905180008 16 277 4.8 19.3 0.00 0.00 0.00 30 1009.5
20260905174506 16 58 4.8 12.9 0.00 0.00 0.00 33 1009.5
20260905173005 16 228 4.8 14.5 0.00 0.00 0.00 33 1009.6
20260905171504 15 65 1.6 11.3 0.00 0.00 0.00 35 1009.6
20260905170002 14 135 3.2 8.0 0.00 0.00 0.00 38 1009.7
20260905164501 13 275 1.6 9.7 0.00 0.00 0.00 34 1009.5
20260905163059 13 280 3.2 14.5 0.00 0.00 0.00 34 1009.4
20260905161558 13 74 8.0 14.5 0.00 0.00 0.00 42 1009.4
20260905160057 12 130 4.8 14.5 0.00 0.00 0.00 43 1009.5
20260905154556 12 58 1.6 8.0 0.00 0.00 0.00 45 1009.6
20260905153053 11 229 0.0 6.4 0.00 0.00 0.00 47 1009.4
20260905151551 11 115 1.6 8.0 0.00 0.00 0.00 47 1009.4
20260905150052 10 68 3.2 24.1 0.00 0.00 0.00 47 1009.1
20260905144546 9 247 8.0 24.1 0.00 0.00 0.00 43 1009.0
20260905143041 9 284 9.7 30.6 0.00 0.00 0.00 45 1009.0
20260905141540 8 273 11.3 37.0 0.00 0.00 0.00 48 1008.7
20260905140045 8 241 11.3 37.0 0.00 0.00 0.00 48 1008.3
20260905134541 -17 0.0 0.0 0.00 0.00 0.00 1008.2
20260905133029 -17 0.0 0.0 0.00 0.00 0.00 1008.0
20260905131530 -17 0.0 0.0 0.00 0.00 0.00 1007.9
20260905130035 -17 0.0 0.0 0.00 0.00 0.00 1008.1
20260905124523 -17 0.0 0.0 0.00 0.00 0.00 1008.1
20260905123016 -17 0.0 0.0 0.00 0.00 0.00 1008.1
20260905121510 -17 0.0 0.0 0.00 0.00 0.00 1008.2
20260905120006 -17 0.0 0.0 0.00 0.00 0.00 1008.5
20260905114504 7 277 8.0 25.7 0.00 0.00 0.00 58 1008.7
20260905113003 7 263 11.3 41.8 0.00 0.00 0.00 58 1008.7
20260905111503 7 227 11.3 29.0 0.00 0.00 0.00 61 1008.6
20260905110003 7 256 8.0 38.6 0.00 0.00 0.00 61 1008.7
20260905104613 7 275 9.7 25.7 0.00 0.00 0.00 61 1008.5
20260905103100 7 214 9.7 24.1 0.00 0.00 0.00 59 1008.6
20260905101604 8 269 9.7 43.5 0.00 0.00 0.00 55 1008.7
20260905100105 8 317 8.0 24.1 0.00 0.00 0.00 57 1008.7
20260905094555 7 267 4.8 24.1 0.00 0.00 0.00 61 1008.7
20260905093054 7 271 9.7 22.5 0.00 0.00 0.00 63 1008.7
20260905091553 7 256 11.3 27.4 0.00 0.00 0.00 63 1008.8
20260905090114 7 273 9.7 35.4 0.00 0.00 0.00 62 1009.0
20260905084550 7 265 8.0 27.4 0.00 0.00 0.00 66 1009.0
20260905083047 7 282 9.7 30.6 0.00 0.00 0.00 67 1008.8
20260905081546 7 168 9.7 32.2 0.00 0.00 0.00 70 1009.0
20260905080044 7 275 12.9 37.0 0.00 0.00 0.00 73 1009.0
20260905074545 7 215 9.7 25.7 0.00 0.00 0.00 73 1009.1
20260905073045 7 267 9.7 30.6 0.00 0.00 0.00 72 1009.1
20260905071539 7 242 8.0 27.4 0.00 0.00 0.00 73 1009.1
20260905070046 7 252 8.0 37.0 0.00 0.00 0.00 72 1009.0
20260905064539 7 249 9.7 30.6 0.00 0.00 0.00 71 1008.7
20260905063037 7 292 9.7 30.6 0.00 0.00 0.00 72 1008.6
20260905061541 7 305 9.7 27.4 0.00 0.00 0.00 73 1008.6
20260905060037 7 288 12.9 35.4 0.00 0.00 0.00 71 1008.6
20260905054538 7 284 14.5 40.2 0.00 0.00 0.00 71 1008.7
20260905053035 7 15 6.4 30.6 0.00 0.00 0.00 74 1008.7
20260905051534 7 286 9.7 33.8 0.00 0.00 0.00 73 1008.5
20260905050033 8 272 14.5 29.0 0.00 0.00 0.00 73 1008.5
20260905044533 8 280 8.0 32.2 0.00 0.00 0.00 74 1008.4
20260905043031 8 198 9.7 32.2 0.00 0.00 0.00 74 1008.3
20260905041546 8 309 16.1 30.6 0.00 0.00 0.00 74 1008.1
20260905040031 8 267 8.0 32.2 0.00 0.00 0.00 72 1007.8
20260905034529 8 242 12.9 37.0 0.00 0.00 0.00 72 1007.6
20260905033028 8 303 9.7 29.0 0.00 0.00 0.00 72 1007.6
20260905031527 8 260 6.4 22.5 0.00 0.00 0.00 75 1007.5
20260905030026 8 275 8.0 32.2 0.00 0.00 0.00 75 1007.3
20260905024530 8 277 6.4 22.5 0.00 0.00 0.00 76 1007.2
20260905023024 9 277 4.8 32.2 0.00 0.00 0.00 73 1006.9
20260905021531 9 248 11.3 22.5 0.00 0.00 0.00 74 1007.2
20260905020025 9 304 8.0 25.7 0.00 0.00 0.00 74 1007.1
20260905014524 10 229 11.3 30.6 0.00 0.00 0.00 72 1007.2
20260905013024 10 199 8.0 24.1 0.00 0.00 0.00 70 1007.2
20260905011523 10 202 12.9 27.4 0.00 0.00 0.00 68 1007.2
20260905010021 11 289 8.0 19.3 0.00 0.00 0.00 65 1007.2
20260905004521 11 277 6.4 24.1 0.00 0.00 0.00 65 1007.0
20260905003021 12 234 8.0 37.0 0.00 0.00 0.00 62 1006.9
20260905001519 12 277 8.0 30.6 0.00 0.00 0.00 61 1006.9
20260905000019 13 278 8.0 27.4 0.00 0.00 0.00 60 1006.8
20260904234520 13 283 8.0 32.2 0.00 0.00 0.00 59 1007.0